Cancun, Mexico

4:25 AM on March 27, 2017 (GMT +0000)
Cancun International

Weather History for MMUN - October, 2012

Change the Weather History Date:

Sunday, October 21, 2012

  Actual Average Record
Temperature  
Mean Temperature 83 °F -  
Max Temperature 86 °F 84 °F 93 °F (2004)
Min Temperature 80 °F 69 °F 59 °F (2011)
Cooling Degree Days 18    
Growing Degree Days 33 (Base 50)    
Moisture  
Dew Point 73 °F    
Average Humidity 75    
Maximum Humidity 84    
Minimum Humidity 66    
Precipitation  
Precipitation 0.00 in - - ()
Sea Level Pressure  
Sea Level Pressure 29.90 in    
Wind  
Wind Speed 6 mph ()    
Max Wind Speed 14 mph    
Max Gust Speed -    
Visibility 7.3 miles    
Events      
Averages and records for this station are not official NWS values.
T = Trace of Precipitation, MM = Missing Value Source: Averaged Metar Reports

Daily Weather History Graph

Daily Weather History Graph

Search for Another Location

Airport or City:

Trip Planner

Search our weather history database for the weather conditions in past years. The results will help you decide how hot, cold, wet, or windy it might be!

Date:

Astronomy

Oct. 21, 2012 Rise Set
Actual Time 6:45 AM CDT 6:18 PM CDT
Civil Twilight 6:22 AM CDT 6:40 PM CDT
Nautical Twilight 5:56 AM CDT 7:06 PM CDT
Astronomical Twilight 5:31 AM CDT 7:32 PM CDT
Moon 12:51 PM CDT (10/21) No Moon Set
Length of Visible Light 12h 17m
Length of Day
11h 32m
Waxing Crescent, 45% of the Moon is Illuminated
Oct 21
Waxing Crescent
Oct 21
First Quarter
Oct 29
Full
Nov 6
Last Quarter
Nov 13
New

Hourly Weather History & Observations

Time (CDT) Temp. Heat Index Dew Point Humidity Pressure Visibility Wind Dir Wind Speed Gust Speed Precip Events Conditions
12:46 AM 80.6 °F 85.4 °F 73.4 °F 79% 29.88 in 7.0 mi ENE 4.6 mph - N/A   Partly Cloudy
1:47 AM 80.6 °F 84.6 °F 71.6 °F 74% 29.86 in 7.0 mi ENE 8.1 mph - N/A   Partly Cloudy
2:48 AM 80.6 °F 84.6 °F 71.6 °F 74% 29.85 in 7.0 mi ENE 4.6 mph - N/A   Partly Cloudy
3:44 AM 80.6 °F 84.6 °F 71.6 °F 74% 29.87 in 7.0 mi East 6.9 mph - N/A   Partly Cloudy
4:44 AM 80.6 °F 84.6 °F 71.6 °F 74% 29.86 in 7.0 mi ENE 4.6 mph - N/A   Partly Cloudy
5:43 AM 80.6 °F 84.6 °F 71.6 °F 74% 29.88 in 7.0 mi East 6.9 mph - N/A   Partly Cloudy
6:42 AM 80.6 °F 84.6 °F 71.6 °F 74% 29.88 in 7.0 mi NE 6.9 mph - N/A   Scattered Clouds
7:44 AM 82.4 °F 88.2 °F 73.4 °F 74% 29.92 in 7.0 mi East 6.9 mph - N/A   Mostly Cloudy
8:44 AM 84.2 °F 90.9 °F 73.4 °F 70% 29.95 in 7.0 mi East 10.4 mph - N/A   Mostly Cloudy
9:54 AM 84.2 °F 90.9 °F 73.4 °F 70% 29.96 in 8.0 mi East 9.2 mph - N/A   Scattered Clouds
10:48 AM 86.0 °F 93.4 °F 73.4 °F 66% 29.96 in 8.0 mi ENE 8.1 mph - N/A   Scattered Clouds
11:41 AM 80.6 °F 85.4 °F 73.4 °F 79% 29.97 in 6.0 mi South 12.7 mph - N/A   Mostly Cloudy
12:45 PM 82.4 °F 88.2 °F 73.4 °F 74% 29.94 in 8.0 mi SSE 8.1 mph - N/A   Mostly Cloudy
1:44 PM 80.6 °F 84.6 °F 71.6 °F 74% 29.92 in 7.0 mi SSE 13.8 mph - N/A   Mostly Cloudy
2:40 PM 82.4 °F 88.2 °F 73.4 °F 74% 29.88 in 8.0 mi ENE 8.1 mph - N/A   Scattered Clouds
3:41 PM 82.4 °F 88.2 °F 73.4 °F 74% 29.86 in 8.0 mi ENE 9.2 mph - N/A   Mostly Cloudy
4:40 PM 80.6 °F 85.4 °F 73.4 °F 79% 29.87 in 8.0 mi NE 6.9 mph - N/A   Scattered Clouds
5:44 PM 80.6 °F 86.2 °F 75.2 °F 84% 29.87 in 8.0 mi NE 6.9 mph - N/A   Scattered Clouds
6:46 PM 80.6 °F 86.2 °F 75.2 °F 84% 29.87 in 7.0 mi NE 3.5 mph - N/A   Mostly Cloudy
7:41 PM 80.6 °F 85.4 °F 73.4 °F 79% 29.88 in 7.0 mi NE 4.6 mph - N/A   Mostly Cloudy
8:40 PM 80.6 °F 85.4 °F 73.4 °F 79% 29.90 in 7.0 mi NE 6.9 mph - N/A   Mostly Cloudy
9:48 PM 80.6 °F 85.4 °F 73.4 °F 79% 29.89 in 7.0 mi East 5.8 mph - N/A   Mostly Cloudy
10:47 PM 80.6 °F 84.6 °F 71.6 °F 74% 29.92 in 7.0 mi NNE 9.2 mph - N/A   Scattered Clouds
11:46 PM 80.6 °F 84.6 °F 71.6 °F 74% 29.91 in 7.0 mi NE 5.8 mph - N/A   Partly Cloudy